TimeCDT,TemperatureF,Dew PointF,Humidity,Sea Level PressureIn,VisibilityMPH,Wind Direction,Wind SpeedMPH,Gust SpeedMPH,PrecipitationIn,Events,Conditions,WindDirDegrees,DateUTC
12:53 AM,54.0,51.1,90,29.93,10.0,NNW,4.6,-,N/A,,Scattered Clouds,330,2013-09-21 05:53:00
1:53 AM,54.0,50.0,86,29.93,10.0,NW,4.6,-,N/A,,Scattered Clouds,320,2013-09-21 06:53:00
2:53 AM,53.1,48.9,86,29.92,10.0,NNW,5.8,-,N/A,,Clear,330,2013-09-21 07:53:00
3:53 AM,52.0,48.0,86,29.92,10.0,NW,5.8,-,N/A,,Clear,320,2013-09-21 08:53:00
4:53 AM,50.0,46.9,89,29.93,10.0,NNW,6.9,-,N/A,,Clear,330,2013-09-21 09:53:00
5:53 AM,50.0,46.9,89,29.94,10.0,NNW,5.8,-,N/A,,Clear,330,2013-09-21 10:53:00
6:53 AM,48.9,46.0,90,29.96,10.0,NNW,6.9,-,N/A,,Clear,330,2013-09-21 11:53:00
7:53 AM,50.0,46.0,86,29.98,10.0,NW,8.1,-,N/A,,Clear,320,2013-09-21 12:53:00
8:53 AM,54.0,46.9,77,29.98,10.0,NNW,9.2,-,N/A,,Clear,340,2013-09-21 13:53:00
9:53 AM,59.0,48.0,67,29.99,10.0,North,8.1,-,N/A,,Clear,350,2013-09-21 14:53:00
10:53 AM,63.0,46.9,56,29.99,10.0,Variable,6.9,-,N/A,,Clear,0,2013-09-21 15:53:00
11:53 AM,66.0,46.0,48,29.98,10.0,North,11.5,18.4,N/A,,Clear,350,2013-09-21 16:53:00
12:53 PM,66.9,46.0,47,29.98,10.0,North,6.9,16.1,N/A,,Clear,350,2013-09-21 17:53:00
1:53 PM,68.0,45.0,43,29.96,10.0,NNW,9.2,-,N/A,,Clear,340,2013-09-21 18:53:00
2:53 PM,70.0,45.0,41,29.94,10.0,NNW,9.2,17.3,N/A,,Clear,340,2013-09-21 19:53:00
3:53 PM,71.1,46.0,41,29.92,10.0,NW,6.9,17.3,N/A,,Clear,310,2013-09-21 20:53:00
4:53 PM,70.0,45.0,41,29.92,10.0,NNW,8.1,-,N/A,,Clear,330,2013-09-21 21:53:00
5:53 PM,69.1,45.0,42,29.91,10.0,North,6.9,-,N/A,,Clear,350,2013-09-21 22:53:00
6:53 PM,64.9,46.0,50,29.91,7.0,NNW,3.5,-,N/A,,Clear,330,2013-09-21 23:53:00
7:53 PM,59.0,46.9,64,29.92,10.0,Calm,Calm,-,N/A,,Clear,0,2013-09-22 00:53:00
8:53 PM,54.0,48.9,83,29.93,10.0,Calm,Calm,-,N/A,,Clear,0,2013-09-22 01:53:00
9:53 PM,54.0,48.0,80,29.94,10.0,Calm,Calm,-,N/A,,Clear,0,2013-09-22 02:53:00
10:53 PM,52.0,48.0,86,29.96,10.0,Calm,Calm,-,N/A,,Clear,0,2013-09-22 03:53:00
11:53 PM,48.9,46.9,93,29.95,10.0,Calm,Calm,-,N/A,,Clear,0,2013-09-22 04:53:00